This demonstration page uses our WeatherBlox Daily Observations layout. Learn more.

Left ArrowRight Arrow

41.86663, -103.66717

Hourly Observations for March 18, 2016

Temp ( °F °C ) Dew Point ( °F °C ) Humidity (%) Winds ( mph kmh ) Pressure ( in mb ) Visibility ( mi km ) Precip ( " mm )
12:53 am 00:53 Cloudy with Light Snow 28 -2.2 20 -6.7 72 72 N 14 22 30.20 1023 3 5 N/A
12:55 am 00:55 Cloudy with Light Snow 28 -2.2 21 -6.1 75 75 N 12 19 30.33 1027 3 4 N/A
1:23 am 01:23 Cloudy with Light Snow 27 -2.8 22 -5.6 81 81 N N/A 30.33 1027 4 6 N/A
1:53 am 01:53 Cloudy 27 -2.8 22 -5.6 81 81 SSW 3 6 30.21 1023 10 16 N/A
2:53 am 02:53 Cloudy 27 -2.8 23 -5 85 85 SSW 3 6 30.21 1023 10 16 N/A
3:53 am 03:53 Cloudy 26 -3.3 23 -5 88 88 SSW 3 6 30.22 1023 10 16 N/A
4:53 am 04:53 Cloudy 26 -3.3 22 -5.6 84 84 NW 5 7 30.23 1024 10 16 N/A
5:53 am 05:53 Mostly Cloudy 25 -3.9 21 -6.1 85 85 NNW 6 9 30.25 1025 10 16 N/A
6:53 am 06:53 Clear 22 -5.6 19 -7.2 89 89 NW 3 6 30.28 1026 10 16 N/A
7:53 am 07:53 Sunny 23 -5 20 -6.7 88 88 NNW 3 6 30.31 1026 10 16 N/A
8:53 am 08:53 Sunny 28 -2.2 16 -8.9 60 60 NNW 12 19 30.32 1027 10 16 N/A
9:53 am 09:53 Sunny 32 undefined 12 -11.1 43 43 NNW 14 22 30.31 1027 10 16 N/A
10:53 am 10:53 Mostly Cloudy 34 1.1 10 -12.2 37 37 NNW 16 26 30.31 1026 10 16 N/A
11:53 am 11:53 Mostly Cloudy 37 2.8 7 -13.9 28 28 NW 14 22 30.30 1026 10 16 N/A
12:53 pm 12:53 Cloudy 39 3.9 7 -13.9 26 26 WNW 18 30 30.28 1025 10 16 N/A
1:53 pm 13:53 Mostly Cloudy 38 3.3 6 -14.4 26 26 NNW 16 26 30.27 1025 10 16 N/A
2:53 pm 14:53 Cloudy 40 4.4 7 -13.9 25 25 NNW 18 30 30.23 1024 10 16 N/A
3:53 pm 15:53 Mostly Cloudy 40 4.4 7 -13.9 25 25 NW 20 31 30.24 1024 10 16 N/A
4:53 pm 16:53 Mostly Cloudy 39 3.9 5 -15 24 24 WNW 16 26 30.23 1024 10 16 N/A
5:53 pm 17:53 Mostly Cloudy 37 2.8 6 -14.4 27 27 N 18 30 30.25 1025 10 16 N/A
6:53 pm 18:53 Partly Cloudy 34 1.1 7 -13.9 32 32 N 12 19 30.28 1026 10 16 N/A
7:53 pm 19:53 Cloudy 33 0.6 9 -12.8 36 36 N 10 17 30.31 1026 10 16 N/A
8:53 pm 20:53 Mostly Cloudy 29 -1.7 11 -11.7 47 47 N 8 13 30.33 1027 10 16 N/A
9:53 pm 21:53 Mostly Cloudy 27 -3 12 -11 54 54 SSW 3 6 30.45 1031 10 16 N/A
10:53 pm 22:53 Cloudy 26 -3.3 13 -10.6 57 57 N 8 13 30.35 1028 10 16 N/A
11:53 pm 23:53 Mostly Clear 23 -5 13 -10.6 65 65 NW 7 11 30.37 1028 10 16 N/A

Powered by AerisWeather